Weather History for Silver Bay, MN

Change the Weather History Date:

Wednesday, January 23, 2013

  Actual Average Record
Temperature  
Mean Temperature -20 °C -  
Max Temperature -15 °C -7 °C 0 °C (2001)
Min Temperature -26 °C -17 °C -32 °C (2011)
Degree Days  
Heating Degree Days 70    
Moisture  
Dew Point -28 °C    
Average Humidity 58    
Maximum Humidity 71    
Minimum Humidity 36    
Precipitation  
Precipitation 0.00 mm - - ()
Sea Level Pressure  
Sea Level Pressure 1022 hPa    
Wind  
Wind Speed 6 km/h (NW)    
Max Wind Speed 24 km/h    
Max Gust Speed 39 km/h    
Visibility 14 kilometers    
Events Snow    
Averages and records for this station are not official NWS values.
T = Trace of Precipitation, MM = Missing Value Source: NWS Daily Summary

Daily Weather History Graph

Daily Weather History Graph

Search for Another Location

Airport:

Trip Planner

Search our weather history database for the weather conditions in past years. The results will help you decide how hot, cold, wet, or windy it might be!

Date:

Astronomy

Jan. 23, 2013 Rise Set
Actual Time 7:41 AM CST 4:54 PM CST
Civil Twilight 7:07 AM CST 5:28 PM CST
Nautical Twilight 6:30 AM CST 6:05 PM CST
Astronomical Twilight 5:53 AM CST 6:41 PM CST
Moon 2:01 PM CST (1/23) 4:56 AM CST (1/23)
Length of Visible Light 10h 20m
Length of Day
9h 13m
Waxing Gibbous, 89% of the Moon is Illuminated
Jan 23
Waxing Gibbous
Jan 26
Full
Feb 3
Last Quarter
Feb 10
New
Feb 17
First Quarter

Hourly Weather History & Observations

Time (CST) Temp. Windchill Dew Point Humidity Pressure Visibility Wind Dir Wind Speed Gust Speed Precip Events Conditions
12:13 AM -22.0 °C -27.0 °C -27.0 °C 65% 1018.5 hPa 16.1 km West 5.6 km/h / 1.5 m/s - N/A   Clear
12:33 AM -22.0 °C - -27.0 °C 65% 1018.5 hPa 16.1 km Calm Calm - N/A   Clear
12:53 AM -22.0 °C -28.2 °C -27.0 °C 65% 1018.5 hPa 16.1 km West 7.4 km/h / 2.1 m/s - N/A   Clear
1:13 AM -22.0 °C - -27.0 °C 65% 1018.2 hPa 16.1 km Calm Calm - N/A   Mostly Cloudy
1:33 AM -22.0 °C -27.0 °C -27.0 °C 65% 1018.2 hPa 16.1 km WNW 5.6 km/h / 1.5 m/s - N/A   Overcast
1:53 AM -22.0 °C -28.2 °C -27.0 °C 65% 1018.2 hPa 16.1 km West 7.4 km/h / 2.1 m/s - N/A   Overcast
2:13 AM -22.0 °C -28.2 °C -27.0 °C 65% 1018.2 hPa 16.1 km West 7.4 km/h / 2.1 m/s - N/A   Overcast
2:33 AM -22.0 °C -28.2 °C -27.0 °C 65% 1018.2 hPa 16.1 km WNW 7.4 km/h / 2.1 m/s - N/A   Overcast
2:54 AM -22.0 °C -27.0 °C -27.0 °C 65% 1018.2 hPa 16.1 km NW 5.6 km/h / 1.5 m/s - N/A   Overcast
3:13 AM -22.0 °C - -27.0 °C 65% 1018.2 hPa 16.1 km Calm Calm - N/A   Overcast
3:33 AM -22.0 °C -28.2 °C -27.0 °C 65% 1017.8 hPa 16.1 km West 7.4 km/h / 2.1 m/s - N/A   Overcast
3:53 AM -22.0 °C -28.2 °C -27.0 °C 65% 1017.5 hPa 16.1 km West 7.4 km/h / 2.1 m/s - N/A   Overcast
4:13 AM -22.0 °C -27.0 °C -28.0 °C 59% 1017.5 hPa 16.1 km WNW 5.6 km/h / 1.5 m/s - N/A   Overcast
4:33 AM -22.0 °C - -27.0 °C 65% 1017.2 hPa 16.1 km Calm Calm - N/A   Mostly Cloudy
4:53 AM -22.0 °C - -27.0 °C 65% 1017.2 hPa 16.1 km Calm Calm - N/A   Overcast
5:13 AM -22.0 °C - -27.0 °C 65% 1016.8 hPa 16.1 km Calm Calm - N/A   Overcast
5:33 AM -22.0 °C -27.0 °C -26.0 °C 71% 1016.5 hPa 16.1 km WSW 5.6 km/h / 1.5 m/s - N/A   Overcast
5:53 AM -21.0 °C -25.8 °C -26.0 °C 65% 1016.5 hPa 11.3 km WSW 5.6 km/h / 1.5 m/s - N/A   Scattered Clouds
6:14 AM -21.0 °C - -26.0 °C 65% 1016.5 hPa 11.3 km Calm Calm - N/A   Scattered Clouds
6:33 AM -21.0 °C - -26.0 °C 65% 1016.5 hPa 16.1 km Calm Calm - N/A   Mostly Cloudy
6:53 AM -21.0 °C - -26.0 °C 65% 1016.5 hPa 16.1 km Calm Calm - N/A   Overcast
7:13 AM -21.0 °C - -26.0 °C 65% 1016.1 hPa 11.3 km Calm Calm - N/A   Overcast
7:33 AM -22.0 °C - -26.0 °C 71% 1016.1 hPa 8.0 km Calm Calm - N/A Snow Light Snow
7:53 AM -22.0 °C - -26.0 °C 71% 1016.1 hPa 8.0 km Calm Calm - N/A   Haze
8:13 AM -22.0 °C - -27.0 °C 65% 1016.1 hPa 11.3 km Calm Calm - N/A   Scattered Clouds
8:33 AM -22.0 °C - -26.0 °C 71% 1016.1 hPa 11.3 km Calm Calm - N/A   Mostly Cloudy
8:53 AM -21.0 °C - -26.0 °C 65% 1016.1 hPa 16.1 km Calm Calm - N/A   Overcast
9:14 AM -21.0 °C - -26.0 °C 65% 1016.1 hPa 16.1 km Calm Calm - N/A   Scattered Clouds
9:34 AM -20.0 °C - -25.0 °C 65% 1016.1 hPa 11.3 km Calm Calm - N/A Snow Light Snow
9:53 AM -19.0 °C - -24.0 °C 66% 1016.1 hPa 16.1 km Calm Calm - N/A   Scattered Clouds
10:13 AM -18.0 °C -23.5 °C -23.0 °C 66% 1016.1 hPa 11.3 km NW 7.4 km/h / 2.1 m/s - N/A   Clear
10:33 AM -16.0 °C -22.1 °C -23.0 °C 56% 1015.8 hPa 11.3 km NW 9.3 km/h / 2.6 m/s - N/A   Clear
10:53 AM -15.0 °C -22.3 °C -23.0 °C 52% 1016.5 hPa 16.1 km NW 13.0 km/h / 3.6 m/s 35.2 km/h / 9.8 m/s N/A   Clear
11:16 AM -15.0 °C -22.8 °C -24.0 °C 47% 1016.5 hPa 16.1 km NW 14.8 km/h / 4.1 m/s 31.5 km/h / 8.7 m/s N/A   Clear
11:33 AM -15.0 °C -22.3 °C -24.0 °C 47% 1016.5 hPa 11.3 km NNW 13.0 km/h / 3.6 m/s 27.8 km/h / 7.7 m/s N/A   Clear
11:53 AM -15.0 °C -20.9 °C -24.0 °C 47% 1016.8 hPa 8.0 km NW 9.3 km/h / 2.6 m/s 31.5 km/h / 8.7 m/s N/A   Haze
12:13 PM -16.0 °C -24.6 °C -24.0 °C 51% 1017.2 hPa 4.8 km NNW 16.7 km/h / 4.6 m/s 31.5 km/h / 8.7 m/s N/A   Haze
12:37 PM -16.0 °C -26.3 °C -26.0 °C 43% 1017.5 hPa 6.4 km WNW 24.1 km/h / 6.7 m/s 35.2 km/h / 9.8 m/s N/A   Haze
12:56 PM -16.0 °C -23.5 °C -25.0 °C 47% 1017.8 hPa 6.4 km NW 13.0 km/h / 3.6 m/s 27.8 km/h / 7.7 m/s N/A   Haze
1:16 PM -16.0 °C -23.5 °C -26.0 °C 43% 1018.2 hPa 11.3 km NNW 13.0 km/h / 3.6 m/s 27.8 km/h / 7.7 m/s N/A   Clear
1:35 PM -16.0 °C -25.5 °C -28.0 °C 36% 1018.8 hPa 11.3 km NNW 20.4 km/h / 5.7 m/s 35.2 km/h / 9.8 m/s N/A   Clear
1:53 PM -17.0 °C -25.3 °C -28.0 °C 39% 1019.2 hPa 16.1 km NW 14.8 km/h / 4.1 m/s 33.3 km/h / 9.3 m/s N/A   Clear
2:13 PM -17.0 °C -24.0 °C -29.0 °C 36% 1019.9 hPa 16.1 km NW 11.1 km/h / 3.1 m/s 37.0 km/h / 10.3 m/s N/A   Clear
2:34 PM -18.0 °C -28.0 °C -29.0 °C 39% 1020.9 hPa 11.3 km NW 20.4 km/h / 5.7 m/s 38.9 km/h / 10.8 m/s N/A   Clear
2:53 PM -18.0 °C -25.2 °C -29.0 °C 39% 1021.6 hPa 16.1 km North 11.1 km/h / 3.1 m/s 31.5 km/h / 8.7 m/s N/A   Clear
3:13 PM -19.0 °C -29.3 °C -29.0 °C 42% 1022.6 hPa 16.1 km NNW 20.4 km/h / 5.7 m/s 35.2 km/h / 9.8 m/s N/A   Clear
3:33 PM -19.0 °C -28.3 °C -29.0 °C 42% 1023.2 hPa 16.1 km NNW 16.7 km/h / 4.6 m/s 35.2 km/h / 9.8 m/s N/A   Scattered Clouds
3:53 PM -19.0 °C -29.7 °C -29.0 °C 42% 1023.9 hPa 16.1 km NNW 22.2 km/h / 6.2 m/s 35.2 km/h / 9.8 m/s N/A   Scattered Clouds
4:13 PM -20.0 °C -30.1 °C -29.0 °C 46% 1024.6 hPa 16.1 km NNW 18.5 km/h / 5.1 m/s 35.2 km/h / 9.8 m/s N/A   Clear
4:33 PM -21.0 °C -29.6 °C -29.0 °C 50% 1025.3 hPa 16.1 km NNW 13.0 km/h / 3.6 m/s 25.9 km/h / 7.2 m/s N/A   Clear
4:53 PM -22.0 °C -31.4 °C -29.0 °C 54% 1025.6 hPa 16.1 km NNW 14.8 km/h / 4.1 m/s - N/A   Clear
5:13 PM -22.0 °C -30.8 °C -29.0 °C 54% 1026.6 hPa 16.1 km NW 13.0 km/h / 3.6 m/s - N/A   Clear
5:33 PM -22.0 °C -29.2 °C -29.0 °C 54% 1026.6 hPa 16.1 km NNW 9.3 km/h / 2.6 m/s - N/A   Clear
5:54 PM -22.0 °C -29.2 °C -29.0 °C 54% 1027.3 hPa 16.1 km NW 9.3 km/h / 2.6 m/s - N/A   Clear
6:13 PM -23.0 °C -31.3 °C -29.0 °C 59% 1028.0 hPa 16.1 km NNW 11.1 km/h / 3.1 m/s - N/A   Clear
6:33 PM -23.0 °C -30.4 °C -29.0 °C 59% 1028.3 hPa 16.1 km NNW 9.3 km/h / 2.6 m/s - N/A   Clear
6:53 PM -23.0 °C -31.3 °C -29.0 °C 59% 1029.0 hPa 16.1 km NNW 11.1 km/h / 3.1 m/s - N/A   Clear
7:13 PM -23.0 °C -31.3 °C -29.0 °C 59% 1029.7 hPa 16.1 km NW 11.1 km/h / 3.1 m/s - N/A   Clear
7:33 PM -23.0 °C -32.0 °C -29.0 °C 59% 1030.0 hPa 16.1 km NW 13.0 km/h / 3.6 m/s - N/A   Clear
7:53 PM -24.0 °C -30.5 °C -30.0 °C 59% 1030.0 hPa 16.1 km NNW 7.4 km/h / 2.1 m/s - N/A   Clear
8:13 PM -24.0 °C -33.9 °C -30.0 °C 59% 1030.7 hPa 16.1 km NNW 14.8 km/h / 4.1 m/s - N/A   Clear
8:33 PM -24.0 °C -33.2 °C -30.0 °C 59% 1031.0 hPa 16.1 km NNW 13.0 km/h / 3.6 m/s - N/A   Clear
8:53 PM -24.0 °C -33.2 °C -31.0 °C 54% 1031.0 hPa 16.1 km North 13.0 km/h / 3.6 m/s - N/A   Clear
9:13 PM -24.0 °C -32.5 °C -31.0 °C 54% 1031.0 hPa 16.1 km North 11.1 km/h / 3.1 m/s - N/A   Clear
9:33 PM -25.0 °C -30.4 °C -31.0 °C 59% 1031.0 hPa 16.1 km North 5.6 km/h / 1.5 m/s - N/A   Clear
9:53 PM -25.0 °C -34.4 °C -31.0 °C 59% 1031.4 hPa 16.1 km North 13.0 km/h / 3.6 m/s - N/A   Clear
10:13 PM -25.0 °C -32.8 °C -31.0 °C 59% 1031.7 hPa 16.1 km NNW 9.3 km/h / 2.6 m/s - N/A   Clear
10:33 PM -26.0 °C -34.0 °C -31.0 °C 64% 1032.4 hPa 16.1 km North 9.3 km/h / 2.6 m/s - N/A   Clear
10:53 PM -26.0 °C -34.0 °C -32.0 °C 58% 1032.4 hPa 16.1 km NNW 9.3 km/h / 2.6 m/s - N/A   Clear
11:13 PM -26.0 °C -34.0 °C -32.0 °C 58% 1032.7 hPa 16.1 km North 9.3 km/h / 2.6 m/s - N/A   Clear
11:53 PM -26.0 °C -32.9 °C -32.0 °C 58% 1033.4 hPa 16.1 km NNW 7.4 km/h / 2.1 m/s - N/A   Clear